sat.trackr.live / text

‹ back to catalog

STARLINK-37241

NORAD 68528 · 2026-068W

PAYLOAD ACTIVE UNKNOWN

§ Identity

Operator
Country
US
Launch date
2026-03-30
Launch site
AFETR
Launch vehicle
Mass (kg)
RCS (m²)

Purposes: comms

External: N2YO · Heavens-Above · Gunter

§ Orbital elements

Epoch: 2026-05-25T02:51:39.666240Z

Period
94.11 min
Inclination
53.1576°
Eccentricity
0.0001205
Mean motion
15.30201375 rev/d
Perigee alt
474.4 km
Apogee alt
476.0 km
Semi-major
6,853.3 km
B*
7.3204e-4
RAAN
134.4713°
Arg perigee
29.7595°
Mean anomaly
330.3474°
Rev number
864

§ Raw data

STARLINK-372411 68528U 26068W   26145.11920910  .00021385  00000+0  73204-3 0  99992 68528  53.1576 134.4713 0001205  29.7595 330.3474 15.30201375  8645

JSON: /api/v1/satellites/68528 · /tle

For live sub-satellite position, see the globe view (requires WebGL).

§ Visibility from observer

Set your observer location to see the next 7 days of passes ≥ 10°. The values pass through the URL so the page stays shareable.

No JS? Fill the form by hand. The geolocation button needs JavaScript.